LUJ142 EGCC-GVAC

Flight info

Callsign LUJ142
Flight time N/A
Altitude 41000
Route KUXEM P17 BEPHE DCT OSSEP DCT ELNIF DCT ZESPE DCT KLAKI/N0488F430 DCT SALCO/N0489F450 DCT EBOMO DCT LOTEE DCT PINEK DCT BEXAL DCT SAMAR DCT YUSME DCT LIMAL/N0481F470 N873 IPERA DCT DIMKI
Aircraft C750/M-SBDE3FGHIRWXY/SB1

Departure

Time N/A
Airport Manchester Airport (EGCC)

Arrival

Time 2026-04-25 00:08
Airport Amílcar Cabral International Airport (GVAC)
Time Latitude Longitude Altitude Speed Heading
2026-04-24 18:54 51.86632 -2.82175 35162 ft 451 kts 186°
2026-04-24 18:55 51.80335 -2.83364 36062 ft 447 kts 191°
2026-04-24 18:55 51.77265 -2.84071 36517 ft 447 kts 190°
2026-04-24 18:55 51.74209 -2.84714 36961 ft 446 kts 189°
2026-04-24 18:56 51.71143 -2.85338 37411 ft 445 kts 189°
2026-04-24 18:56 51.68059 -2.85999 37876 ft 444 kts 190°
2026-04-24 18:56 51.65029 -2.86663 38326 ft 443 kts 189°
2026-04-24 18:56 51.61910 -2.87330 38799 ft 442 kts 189°
2026-04-24 18:57 51.58729 -2.87996 39192 ft 441 kts 189°
2026-04-24 18:57 51.55699 -2.88637 39499 ft 441 kts 189°
2026-04-24 18:57 51.52626 -2.89296 39794 ft 441 kts 189°
2026-04-24 18:57 51.49559 -2.89947 40101 ft 442 kts 189°
2026-04-24 18:58 51.46323 -2.90628 40432 ft 442 kts 189°
2026-04-24 18:58 51.43434 -2.91237 40737 ft 442 kts 189°
2026-04-24 18:58 51.40336 -2.91893 41045 ft 441 kts 189°
2026-04-24 18:58 51.37296 -2.92533 41251 ft 441 kts 189°
2026-04-24 18:59 51.34166 -2.93193 41231 ft 450 kts 189°
2026-04-24 18:59 51.27833 -2.94523 41247 ft 465 kts 189°
2026-04-24 19:00 51.22270 -2.95687 41241 ft 476 kts 189°
2026-04-24 19:00 51.15759 -2.97045 41220 ft 473 kts 189°
2026-04-24 19:01 51.09148 -2.98424 41218 ft 475 kts 189°
2026-04-24 19:01 51.02544 -2.99794 41219 ft 474 kts 189°
2026-04-24 19:02 50.97020 -3.00939 41217 ft 474 kts 189°
2026-04-24 19:02 50.89408 -3.02511 41218 ft 474 kts 189°
2026-04-24 19:03 50.82829 -3.03866 41224 ft 473 kts 189°
2026-04-24 19:03 50.76272 -3.05212 41224 ft 472 kts 189°
2026-04-24 19:04 50.69760 -3.06545 41219 ft 472 kts 188°
2026-04-24 19:04 50.63308 -3.07862 41232 ft 473 kts 189°
2026-04-24 19:05 50.56822 -3.09183 41218 ft 472 kts 188°
2026-04-24 19:05 50.50513 -3.10464 41215 ft 472 kts 188°
2026-04-24 19:06 50.44042 -3.11774 41208 ft 472 kts 188°
2026-04-24 19:06 50.37456 -3.13271 41182 ft 471 kts 194°
2026-04-24 19:07 50.31336 -3.16814 41208 ft 469 kts 204°
2026-04-24 19:07 50.26319 -3.20092 41209 ft 469 kts 202°
2026-04-24 19:08 50.19231 -3.24486 41198 ft 469 kts 203°
2026-04-24 19:08 50.13178 -3.28351 41201 ft 469 kts 202°
2026-04-24 19:09 50.07118 -3.32126 41199 ft 469 kts 202°
2026-04-24 19:09 50.01068 -3.35942 41194 ft 468 kts 202°
2026-04-24 19:10 49.95019 -3.39711 41190 ft 469 kts 202°
2026-04-24 19:10 49.88962 -3.43496 41186 ft 468 kts 202°
2026-04-24 19:11 49.82921 -3.47248 41185 ft 468 kts 202°
2026-04-24 19:11 49.76916 -3.50975 42133 ft 447 kts 202°
2026-04-24 19:11 49.74087 -3.52710 43030 ft 432 kts 201°
2026-04-24 19:12 49.71199 -3.54103 43128 ft 438 kts 196°
2026-04-24 19:12 49.65231 -3.56515 43157 ft 450 kts 196°
2026-04-24 19:13 49.60211 -3.58695 43173 ft 461 kts 197°
2026-04-24 19:13 49.52866 -3.61771 43166 ft 473 kts 196°
2026-04-24 19:13 49.49676 -3.63113 43328 ft 474 kts 196°
2026-04-24 19:14 49.46502 -3.64467 43627 ft 474 kts 196°
2026-04-24 19:14 49.43307 -3.65812 43843 ft 475 kts 196°
2026-04-24 19:14 49.40121 -3.67137 44238 ft 471 kts 196°
2026-04-24 19:14 49.36963 -3.68455 44523 ft 471 kts 196°
2026-04-24 19:15 49.33798 -3.69786 44767 ft 472 kts 196°
2026-04-24 19:15 49.30626 -3.71116 44985 ft 473 kts 196°
2026-04-24 19:15 49.27463 -3.72433 45159 ft 470 kts 196°
2026-04-24 19:16 49.17829 -3.76442 45140 ft 477 kts 196°
2026-04-24 19:16 49.12707 -3.78565 45138 ft 476 kts 196°
2026-04-24 19:17 49.06197 -3.81260 45137 ft 477 kts 196°
2026-04-24 19:17 48.99729 -3.83929 45138 ft 477 kts 196°
2026-04-24 19:18 48.93274 -3.86586 45143 ft 478 kts 196°
2026-04-24 19:18 48.86798 -3.89244 45136 ft 477 kts 196°
2026-04-24 19:19 48.80421 -3.91855 45127 ft 478 kts 196°
2026-04-24 19:19 48.74040 -3.94460 45126 ft 478 kts 196°
2026-04-24 19:20 48.67626 -3.97073 45131 ft 478 kts 196°
2026-04-24 19:20 48.61092 -3.99727 45133 ft 478 kts 196°
2026-04-24 19:21 48.54667 -4.02329 45133 ft 478 kts 196°
2026-04-24 19:21 48.48267 -4.04915 45132 ft 478 kts 196°
2026-04-24 19:22 48.41804 -4.07520 45127 ft 477 kts 195°
2026-04-24 19:22 48.35505 -4.10052 45130 ft 476 kts 195°
2026-04-24 19:23 48.29075 -4.12629 45128 ft 476 kts 195°
2026-04-24 19:23 48.22755 -4.15156 45127 ft 476 kts 195°
2026-04-24 19:24 48.16484 -4.17657 45128 ft 476 kts 195°
2026-04-24 19:24 48.10076 -4.20207 45129 ft 477 kts 195°
2026-04-24 19:25 48.03715 -4.22731 45130 ft 477 kts 195°
2026-04-24 19:25 47.97293 -4.25272 45130 ft 476 kts 195°
2026-04-24 19:26 47.90906 -4.27794 45129 ft 477 kts 195°
2026-04-24 19:26 47.84572 -4.30288 45130 ft 477 kts 195°
2026-04-24 19:27 47.78184 -4.33222 45133 ft 476 kts 200°
2026-04-24 19:27 47.71924 -4.36495 45135 ft 477 kts 199°
2026-04-24 19:28 47.65619 -4.39659 45131 ft 477 kts 199°
2026-04-24 19:28 47.59443 -4.42832 45135 ft 477 kts 199°
2026-04-24 19:29 47.51045 -4.47071 45128 ft 477 kts 199°
2026-04-24 19:30 47.44778 -4.50248 45129 ft 477 kts 199°
2026-04-24 19:30 47.38461 -4.53427 45128 ft 477 kts 199°
2026-04-24 19:31 47.32310 -4.56524 45132 ft 476 kts 199°
2026-04-24 19:31 47.25938 -4.59719 45127 ft 477 kts 199°
2026-04-24 19:32 47.19650 -4.62866 45132 ft 477 kts 199°
2026-04-24 19:32 47.13364 -4.66003 45129 ft 476 kts 199°
2026-04-24 19:33 47.07038 -4.69153 45124 ft 476 kts 199°
2026-04-24 19:33 47.00731 -4.72286 45121 ft 476 kts 199°
2026-04-24 19:34 46.94536 -4.75355 45128 ft 476 kts 199°
2026-04-24 19:34 46.88249 -4.78462 45125 ft 477 kts 199°
2026-04-24 19:35 46.81998 -4.81543 45127 ft 477 kts 199°
2026-04-24 19:35 46.75901 -4.84542 45125 ft 477 kts 199°
2026-04-24 19:36 46.69560 -4.87653 45133 ft 477 kts 199°
2026-04-24 19:36 46.63256 -4.90738 45128 ft 477 kts 199°
2026-04-24 19:37 46.57096 -4.93745 45125 ft 477 kts 199°
2026-04-24 19:37 46.50925 -4.96750 45129 ft 477 kts 199°
2026-04-24 19:38 46.44598 -4.99824 45130 ft 478 kts 199°
2026-04-24 19:38 46.38334 -5.02860 45127 ft 478 kts 199°
2026-04-24 19:39 46.32031 -5.05907 45127 ft 478 kts 199°
2026-04-24 19:39 46.25715 -5.08953 45127 ft 479 kts 199°
2026-04-24 19:40 46.19379 -5.12002 45125 ft 479 kts 199°
2026-04-24 19:40 46.13966 -5.14600 45127 ft 479 kts 199°
2026-04-24 19:41 46.07638 -5.17631 45128 ft 479 kts 199°
2026-04-24 19:41 46.01305 -5.20657 45127 ft 480 kts 199°
2026-04-24 19:42 45.95027 -5.23649 45130 ft 479 kts 199°
2026-04-24 19:42 45.88628 -5.26692 45126 ft 479 kts 199°
2026-04-24 19:43 45.82364 -5.29663 45116 ft 480 kts 199°
2026-04-24 19:43 45.76025 -5.32663 45125 ft 480 kts 199°
2026-04-24 19:44 45.69687 -5.35655 45129 ft 481 kts 199°
2026-04-24 19:44 45.63334 -5.38647 45131 ft 481 kts 199°
2026-04-24 19:45 45.56955 -5.41645 45129 ft 481 kts 199°
2026-04-24 19:45 45.50578 -5.44634 45138 ft 481 kts 199°
2026-04-24 19:46 45.44208 -5.47612 45136 ft 481 kts 199°
2026-04-24 19:46 45.37841 -5.50583 45142 ft 481 kts 199°
2026-04-24 19:47 45.31479 -5.53543 45134 ft 481 kts 199°
2026-04-24 19:47 45.25115 -5.56498 45137 ft 481 kts 199°
2026-04-24 19:48 45.19746 -5.58985 45142 ft 480 kts 199°
2026-04-24 19:48 45.10196 -5.63397 45147 ft 481 kts 199°
2026-04-24 19:49 44.97456 -5.69259 45148 ft 481 kts 199°
2026-04-24 19:50 44.84721 -5.75092 45153 ft 481 kts 199°
2026-04-24 19:51 44.75141 -5.79461 45156 ft 483 kts 199°
2026-04-24 19:52 44.65576 -5.84237 45150 ft 482 kts 208°
2026-04-24 19:52 44.60129 -5.89539 45170 ft 480 kts 219°
2026-04-24 19:53 44.54796 -5.95305 45179 ft 481 kts 216°
2026-04-24 19:54 44.46714 -6.03600 45181 ft 481 kts 218°
2026-04-24 19:54 44.41292 -6.09172 45184 ft 482 kts 217°
2026-04-24 19:55 44.36816 -6.13772 45180 ft 482 kts 217°
2026-04-24 19:55 44.30681 -6.20104 45187 ft 481 kts 217°
2026-04-24 19:56 44.25278 -6.25633 45190 ft 481 kts 217°
2026-04-24 19:56 44.19880 -6.31168 45194 ft 481 kts 217°
2026-04-24 19:57 44.14484 -6.36669 45195 ft 480 kts 217°
2026-04-24 19:57 44.09099 -6.42158 45193 ft 481 kts 217°
2026-04-24 19:58 44.03692 -6.47650 45192 ft 480 kts 217°
2026-04-24 19:58 43.98337 -6.53081 45191 ft 480 kts 217°
2026-04-24 19:59 43.92977 -6.58502 45190 ft 480 kts 217°
2026-04-24 19:59 43.87549 -6.63981 45197 ft 480 kts 217°
2026-04-24 20:00 43.82160 -6.69406 45193 ft 480 kts 217°
2026-04-24 20:00 43.76772 -6.74820 45193 ft 480 kts 217°
2026-04-24 20:01 43.71368 -6.80236 45195 ft 480 kts 217°
2026-04-24 20:01 43.66006 -6.85599 45198 ft 480 kts 217°
2026-04-24 20:02 43.61437 -6.90157 45195 ft 480 kts 217°
2026-04-24 20:02 43.55085 -6.96482 45192 ft 480 kts 217°
2026-04-24 20:03 43.49677 -7.01854 45193 ft 480 kts 217°
2026-04-24 20:03 43.44249 -7.07233 45194 ft 480 kts 217°
2026-04-24 20:04 43.38834 -7.12588 45200 ft 480 kts 217°
2026-04-24 20:04 43.33366 -7.17982 45193 ft 479 kts 217°
2026-04-24 20:05 43.28062 -7.23203 45182 ft 480 kts 217°
2026-04-24 20:05 43.23130 -7.28047 45181 ft 480 kts 217°
2026-04-24 20:06 43.17762 -7.33309 45180 ft 480 kts 217°
2026-04-24 20:06 43.12244 -7.38705 45173 ft 481 kts 217°
2026-04-24 20:07 43.07669 -7.43170 45169 ft 481 kts 217°
2026-04-24 20:07 43.02730 -7.47982 45167 ft 481 kts 217°
2026-04-24 20:08 42.96976 -7.53575 45162 ft 481 kts 217°
2026-04-24 20:08 42.91577 -7.58810 45157 ft 481 kts 217°
2026-04-24 20:09 42.86033 -7.64174 45160 ft 481 kts 217°
2026-04-24 20:09 42.80577 -7.69442 45161 ft 481 kts 217°
2026-04-24 20:10 42.75113 -7.74705 45157 ft 481 kts 217°
2026-04-24 20:10 42.69648 -7.79958 45151 ft 481 kts 217°
2026-04-24 20:11 42.64113 -7.85267 45151 ft 481 kts 217°
2026-04-24 20:11 42.58651 -7.90493 45169 ft 480 kts 217°
2026-04-24 20:12 42.53167 -7.95730 45160 ft 481 kts 217°
2026-04-24 20:12 42.47713 -8.00926 45166 ft 481 kts 217°
2026-04-24 20:13 42.42193 -8.06174 45157 ft 481 kts 217°
2026-04-24 20:13 42.36728 -8.11358 45164 ft 480 kts 217°
2026-04-24 20:14 42.31259 -8.16535 45154 ft 480 kts 217°
2026-04-24 20:14 42.25743 -8.21745 45157 ft 481 kts 217°
2026-04-24 20:15 42.20273 -8.26900 45165 ft 480 kts 217°
2026-04-24 20:15 42.14827 -8.32022 45168 ft 480 kts 217°
2026-04-24 20:16 42.09367 -8.37146 45164 ft 481 kts 217°
2026-04-24 20:16 42.03861 -8.42302 45163 ft 481 kts 217°
2026-04-24 20:17 41.98362 -8.47440 45173 ft 481 kts 217°
2026-04-24 20:17 41.90055 -8.55181 45151 ft 481 kts 217°
2026-04-24 20:18 41.84435 -8.60087 45152 ft 484 kts 209°
2026-04-24 20:18 41.78157 -8.63464 45161 ft 487 kts 202°
2026-04-24 20:19 41.71850 -8.66784 45166 ft 487 kts 205°
2026-04-24 20:19 41.65550 -8.70137 45165 ft 487 kts 203°
2026-04-24 20:20 41.59286 -8.73403 45159 ft 486 kts 204°
2026-04-24 20:20 41.52935 -8.76767 45159 ft 487 kts 204°
2026-04-24 20:21 41.46617 -8.80059 45157 ft 487 kts 204°
2026-04-24 20:21 41.40312 -8.83372 45153 ft 487 kts 204°
2026-04-24 20:22 41.33992 -8.86663 45154 ft 488 kts 204°
2026-04-24 20:22 41.27677 -8.89958 45150 ft 488 kts 204°
2026-04-24 20:23 41.21353 -8.93243 45155 ft 488 kts 204°
2026-04-24 20:23 41.16114 -8.95964 45159 ft 488 kts 204°
2026-04-24 20:24 41.09796 -8.99235 45159 ft 488 kts 204°
2026-04-24 20:24 41.03466 -9.02507 45162 ft 488 kts 204°
2026-04-24 20:25 40.97169 -9.05755 45157 ft 488 kts 204°
2026-04-24 20:25 40.90840 -9.09013 45160 ft 489 kts 204°
2026-04-24 20:26 40.84465 -9.12288 45166 ft 489 kts 204°
2026-04-24 20:26 40.78227 -9.15486 45162 ft 490 kts 204°
2026-04-24 20:27 40.71926 -9.18709 45159 ft 490 kts 204°
2026-04-24 20:27 40.65511 -9.21984 45167 ft 490 kts 204°
2026-04-24 20:28 40.59290 -9.25154 45168 ft 490 kts 204°
2026-04-24 20:28 40.52883 -9.28412 45164 ft 491 kts 204°
2026-04-24 20:29 40.46511 -9.31645 45164 ft 491 kts 204°
2026-04-24 20:29 40.40076 -9.34903 45167 ft 491 kts 204°
2026-04-24 20:30 40.33735 -9.38108 45165 ft 491 kts 204°
2026-04-24 20:30 40.27349 -9.41329 45161 ft 491 kts 204°
2026-04-24 20:31 40.20926 -9.44562 45167 ft 491 kts 204°
2026-04-24 20:31 40.14535 -9.47772 45168 ft 492 kts 204°
2026-04-24 20:32 40.08155 -9.50970 45160 ft 492 kts 204°
2026-04-24 20:32 40.01794 -9.54152 45165 ft 492 kts 204°
2026-04-24 20:33 39.95381 -9.57354 45167 ft 492 kts 204°
2026-04-24 20:33 39.88989 -9.60539 45156 ft 492 kts 204°
2026-04-24 20:34 39.82579 -9.63726 45175 ft 493 kts 204°
2026-04-24 20:34 39.76167 -9.66909 45170 ft 493 kts 204°
2026-04-24 20:35 39.69755 -9.70084 45169 ft 492 kts 204°
2026-04-24 20:35 39.63362 -9.73244 45166 ft 492 kts 204°
2026-04-24 20:36 39.56967 -9.76399 45167 ft 492 kts 204°
2026-04-24 20:36 39.50557 -9.79555 45166 ft 492 kts 204°
2026-04-24 20:37 39.44209 -9.82675 45165 ft 492 kts 204°
2026-04-24 20:37 39.37881 -9.85778 45167 ft 492 kts 204°
2026-04-24 20:38 39.31510 -9.88896 45168 ft 492 kts 204°
2026-04-24 20:38 39.25052 -9.92051 45158 ft 492 kts 204°
2026-04-24 20:39 39.18765 -9.95116 45165 ft 492 kts 204°
2026-04-24 20:39 39.12272 -9.98276 45163 ft 492 kts 204°
2026-04-24 20:40 39.05829 -10.01405 45162 ft 492 kts 204°
2026-04-24 20:40 38.99580 -10.04434 45163 ft 492 kts 204°
2026-04-24 20:41 38.93127 -10.07556 45164 ft 492 kts 204°
2026-04-24 20:41 38.86707 -10.10655 45163 ft 492 kts 204°
2026-04-24 20:42 38.81469 -10.13180 45164 ft 492 kts 204°
2026-04-24 20:42 38.75059 -10.16265 45166 ft 492 kts 204°
2026-04-24 20:43 38.68588 -10.19372 45161 ft 492 kts 204°
2026-04-24 20:43 38.62163 -10.22452 45162 ft 492 kts 204°
2026-04-24 20:44 38.55655 -10.25564 45165 ft 492 kts 204°
2026-04-24 20:44 38.49204 -10.28645 45159 ft 493 kts 204°
2026-04-24 20:45 38.42784 -10.31704 45167 ft 492 kts 204°
2026-04-24 20:45 38.36416 -10.34734 45160 ft 493 kts 204°
2026-04-24 20:46 38.30068 -10.37747 45165 ft 493 kts 204°
2026-04-24 20:46 38.23820 -10.40708 45166 ft 493 kts 204°
2026-04-24 20:47 38.17443 -10.43724 45159 ft 494 kts 204°
2026-04-24 20:47 38.10904 -10.46811 45169 ft 494 kts 204°
2026-04-24 20:48 38.04458 -10.49848 45162 ft 494 kts 204°
2026-04-24 20:48 37.97975 -10.52897 45165 ft 494 kts 204°
2026-04-24 20:49 37.91524 -10.55926 45165 ft 495 kts 204°
2026-04-24 20:49 37.85059 -10.58955 45162 ft 495 kts 204°
2026-04-24 20:50 37.78575 -10.61987 45164 ft 496 kts 204°
2026-04-24 20:50 37.72078 -10.65020 45166 ft 496 kts 204°
2026-04-24 20:51 37.65580 -10.68047 45161 ft 497 kts 204°
2026-04-24 20:51 37.59059 -10.71080 45169 ft 497 kts 204°
2026-04-24 20:52 37.52565 -10.74094 45162 ft 498 kts 204°
2026-04-24 20:52 37.46109 -10.77085 45164 ft 498 kts 204°
2026-04-24 20:53 37.39549 -10.80120 45166 ft 499 kts 204°
2026-04-24 20:53 37.33070 -10.83110 45165 ft 499 kts 204°
2026-04-24 20:54 37.27697 -10.85586 45168 ft 499 kts 204°
2026-04-24 20:54 37.21240 -10.88556 45169 ft 499 kts 204°
2026-04-24 20:55 37.14663 -10.91577 45185 ft 500 kts 205°
2026-04-24 20:55 37.08049 -10.94608 45167 ft 500 kts 205°
2026-04-24 20:56 37.01554 -10.97580 45178 ft 499 kts 205°
2026-04-24 20:56 36.95030 -11.00559 45172 ft 499 kts 205°
2026-04-24 20:57 36.88525 -11.03524 45172 ft 499 kts 205°
2026-04-24 20:57 36.81962 -11.06510 45174 ft 498 kts 205°
2026-04-24 20:58 36.75438 -11.09473 45175 ft 498 kts 205°
2026-04-24 20:58 36.68894 -11.12440 45171 ft 497 kts 205°
2026-04-24 20:59 36.62396 -11.15381 45169 ft 497 kts 205°
2026-04-24 20:59 36.55900 -11.18315 45173 ft 497 kts 205°
2026-04-24 21:00 36.49406 -11.21244 45176 ft 496 kts 205°
2026-04-24 21:00 36.42894 -11.24175 45172 ft 497 kts 205°
2026-04-24 21:01 36.36398 -11.27094 45174 ft 497 kts 205°
2026-04-24 21:01 36.29896 -11.30009 45168 ft 497 kts 205°
2026-04-24 21:02 36.23359 -11.32937 45171 ft 497 kts 205°
2026-04-24 21:02 36.16834 -11.35852 45173 ft 497 kts 205°
2026-04-24 21:03 36.10352 -11.38744 45177 ft 497 kts 205°
2026-04-24 21:03 36.03807 -11.41659 45181 ft 497 kts 205°
2026-04-24 21:04 35.97303 -11.44562 45180 ft 495 kts 206°
2026-04-24 21:04 35.91259 -11.48214 45193 ft 489 kts 213°
2026-04-24 21:05 35.85071 -11.52087 45187 ft 490 kts 212°
2026-04-24 21:05 35.78992 -11.55865 45187 ft 489 kts 213°
2026-04-24 21:06 35.72924 -11.59656 45178 ft 489 kts 212°
2026-04-24 21:06 35.66849 -11.63419 45176 ft 489 kts 212°
2026-04-24 21:07 35.60774 -11.67196 45175 ft 489 kts 212°
2026-04-24 21:07 35.54698 -11.70954 45175 ft 489 kts 212°
2026-04-24 21:08 35.48590 -11.74734 45174 ft 489 kts 212°
2026-04-24 21:08 35.42520 -11.78478 45175 ft 489 kts 212°
2026-04-24 21:09 35.36452 -11.82217 45176 ft 489 kts 212°
2026-04-24 21:09 35.30373 -11.85956 45175 ft 488 kts 212°
2026-04-24 21:10 35.24311 -11.89679 45176 ft 488 kts 212°
2026-04-24 21:10 35.18226 -11.93409 45175 ft 488 kts 212°
2026-04-24 21:11 35.12110 -11.97151 45180 ft 488 kts 212°
2026-04-24 21:11 35.07122 -12.00200 45178 ft 488 kts 212°
2026-04-24 21:12 35.01090 -12.03880 45174 ft 488 kts 212°
2026-04-24 21:12 34.95028 -12.07572 45174 ft 488 kts 212°
2026-04-24 21:13 34.88919 -12.11287 45176 ft 488 kts 212°
2026-04-24 21:13 34.82835 -12.14980 45175 ft 488 kts 212°
2026-04-24 21:14 34.76763 -12.18661 45182 ft 488 kts 212°
2026-04-24 21:14 34.70712 -12.22322 45175 ft 488 kts 212°
2026-04-24 21:15 34.64602 -12.26013 45178 ft 488 kts 212°
2026-04-24 21:15 34.58515 -12.29684 45176 ft 487 kts 212°
2026-04-24 21:16 34.52423 -12.33351 45175 ft 487 kts 212°
2026-04-24 21:16 34.46360 -12.36996 45171 ft 487 kts 212°
2026-04-24 21:17 34.40301 -12.40631 45181 ft 486 kts 212°
2026-04-24 21:17 34.35190 -12.43695 45187 ft 486 kts 212°
2026-04-24 21:18 34.29897 -12.46862 45176 ft 487 kts 212°
2026-04-24 21:18 34.23899 -12.50445 45185 ft 486 kts 212°
2026-04-24 21:19 34.17555 -12.54229 45182 ft 485 kts 212°
2026-04-24 21:19 34.11471 -12.57853 45181 ft 484 kts 212°
2026-04-24 21:20 34.03463 -12.62613 45171 ft 484 kts 212°
2026-04-24 21:21 33.97353 -12.66238 45177 ft 483 kts 212°
2026-04-24 21:21 33.91547 -12.69677 45175 ft 483 kts 212°
2026-04-24 21:22 33.85504 -12.73251 45176 ft 483 kts 211°
2026-04-24 21:22 33.79595 -12.76740 45175 ft 482 kts 211°
2026-04-24 21:23 33.73584 -12.80285 45173 ft 482 kts 211°
2026-04-24 21:23 33.67491 -12.83871 45174 ft 482 kts 211°
2026-04-24 21:24 33.61988 -12.87106 45173 ft 482 kts 211°
2026-04-24 21:24 33.55981 -12.90632 45176 ft 482 kts 211°
2026-04-24 21:25 33.49878 -12.94208 45176 ft 482 kts 211°
2026-04-24 21:25 33.43842 -12.97739 45173 ft 482 kts 211°
2026-04-24 21:26 33.37837 -13.01247 45172 ft 483 kts 211°
2026-04-24 21:26 33.31799 -13.04768 45170 ft 483 kts 211°
2026-04-24 21:27 33.25775 -13.08276 45170 ft 483 kts 211°
2026-04-24 21:27 33.19682 -13.11819 45172 ft 483 kts 211°
2026-04-24 21:28 33.13642 -13.15326 45171 ft 483 kts 211°
2026-04-24 21:28 33.07596 -13.18830 45166 ft 483 kts 211°
2026-04-24 21:29 33.01517 -13.22349 45166 ft 482 kts 211°
2026-04-24 21:29 32.95466 -13.25846 45172 ft 483 kts 211°
2026-04-24 21:30 32.89388 -13.29352 45167 ft 482 kts 211°
2026-04-24 21:30 32.83345 -13.32834 45161 ft 482 kts 211°
2026-04-24 21:31 32.77298 -13.36312 45168 ft 482 kts 211°
2026-04-24 21:31 32.71263 -13.39778 45166 ft 482 kts 211°
2026-04-24 21:32 32.65209 -13.43250 45166 ft 482 kts 211°
2026-04-24 21:32 32.59159 -13.46714 45162 ft 482 kts 211°
2026-04-24 21:33 32.53125 -13.50165 45164 ft 482 kts 211°
2026-04-24 21:33 32.47039 -13.53639 45161 ft 482 kts 210°
2026-04-24 21:34 32.41004 -13.57079 45163 ft 482 kts 210°
2026-04-24 21:34 32.34953 -13.60523 45164 ft 482 kts 210°
2026-04-24 21:35 32.28869 -13.63981 45161 ft 481 kts 210°
2026-04-24 21:35 32.22823 -13.67412 45157 ft 482 kts 210°
2026-04-24 21:36 32.16760 -13.70847 45159 ft 482 kts 210°
2026-04-24 21:36 32.10716 -13.74267 45160 ft 482 kts 210°
2026-04-24 21:37 32.04653 -13.77693 45158 ft 482 kts 210°
2026-04-24 21:37 31.98613 -13.81100 45159 ft 481 kts 210°
2026-04-24 21:38 31.93584 -13.83933 45160 ft 481 kts 210°
2026-04-24 21:38 31.87506 -13.87353 45160 ft 481 kts 210°
2026-04-24 21:39 31.81456 -13.90752 45158 ft 480 kts 210°
2026-04-24 21:39 31.75428 -13.94134 45156 ft 480 kts 210°
2026-04-24 21:40 31.69356 -13.97535 45155 ft 480 kts 210°
2026-04-24 21:40 31.63327 -14.00908 45156 ft 479 kts 210°
2026-04-24 21:41 31.57269 -14.04291 45160 ft 479 kts 210°
2026-04-24 21:41 31.51313 -14.07613 45159 ft 479 kts 210°
2026-04-24 21:42 31.45301 -14.10961 45153 ft 479 kts 210°
2026-04-24 21:42 31.39282 -14.14309 45155 ft 479 kts 210°
2026-04-24 21:43 31.33266 -14.17650 45153 ft 479 kts 210°
2026-04-24 21:43 31.27240 -14.20992 45153 ft 478 kts 210°
2026-04-24 21:44 31.21223 -14.24324 45153 ft 478 kts 210°
2026-04-24 21:44 31.15200 -14.27655 45149 ft 479 kts 210°
2026-04-24 21:45 31.09179 -14.30980 45150 ft 478 kts 210°
2026-04-24 21:45 31.03159 -14.34299 45153 ft 478 kts 210°
2026-04-24 21:46 30.97180 -14.37592 45149 ft 478 kts 210°
2026-04-24 21:46 30.91161 -14.40901 45153 ft 478 kts 210°
2026-04-24 21:47 30.85208 -14.44331 45161 ft 477 kts 211°
2026-04-24 21:47 30.79219 -14.47769 45164 ft 476 kts 211°
2026-04-24 21:48 30.73284 -14.51214 45154 ft 476 kts 211°
2026-04-24 21:48 30.67334 -14.54637 45153 ft 476 kts 211°
2026-04-24 21:49 30.61405 -14.58058 45149 ft 476 kts 211°
2026-04-24 21:49 30.55468 -14.61471 45149 ft 476 kts 211°
2026-04-24 21:50 30.49536 -14.64880 45148 ft 476 kts 211°
2026-04-24 21:50 30.43588 -14.68293 45146 ft 476 kts 211°
2026-04-24 21:51 30.37689 -14.71673 45147 ft 476 kts 211°
2026-04-24 21:51 30.31751 -14.75071 45145 ft 476 kts 211°
2026-04-24 21:52 30.25807 -14.78467 45146 ft 476 kts 211°
2026-04-24 21:52 30.19869 -14.81855 45146 ft 475 kts 211°
2026-04-24 21:53 30.13933 -14.85238 45145 ft 475 kts 211°
2026-04-24 21:53 30.07991 -14.88619 45147 ft 475 kts 211°
2026-04-24 21:54 30.02052 -14.91995 45149 ft 475 kts 211°
2026-04-24 21:54 29.96108 -14.95368 45149 ft 475 kts 211°
2026-04-24 21:55 29.90208 -14.98712 45147 ft 475 kts 211°
2026-04-24 21:55 29.84283 -15.02067 45150 ft 475 kts 211°
2026-04-24 21:56 29.78344 -15.05424 45149 ft 475 kts 211°
2026-04-24 21:56 29.72398 -15.08780 45150 ft 475 kts 211°
2026-04-24 21:57 29.66468 -15.12124 45153 ft 475 kts 211°
2026-04-24 21:57 29.60539 -15.15462 45149 ft 474 kts 211°
2026-04-24 21:58 29.54613 -15.18795 45141 ft 475 kts 211°
2026-04-24 21:58 29.48672 -15.22131 45150 ft 475 kts 211°
2026-04-24 21:59 29.42776 -15.25437 45139 ft 475 kts 211°
2026-04-24 21:59 29.36840 -15.28763 45155 ft 474 kts 211°
2026-04-24 22:00 29.30896 -15.32088 45153 ft 474 kts 211°
2026-04-24 22:00 29.24958 -15.35404 45150 ft 474 kts 211°
2026-04-24 22:01 29.19014 -15.38721 45147 ft 475 kts 211°
2026-04-24 22:01 29.13078 -15.42029 45152 ft 474 kts 211°
2026-04-24 22:02 29.07100 -15.45356 45148 ft 474 kts 211°
2026-04-24 22:02 29.01157 -15.48658 45147 ft 474 kts 211°
2026-04-24 22:03 28.95218 -15.51955 45144 ft 474 kts 211°
2026-04-24 22:03 28.89231 -15.55274 45141 ft 474 kts 211°
2026-04-24 22:04 28.83334 -15.58538 45141 ft 474 kts 211°
2026-04-24 22:04 28.77463 -15.61780 45151 ft 466 kts 211°
2026-04-24 22:05 28.72527 -15.64517 45143 ft 475 kts 211°
2026-04-24 22:05 28.66560 -15.67798 45150 ft 474 kts 211°
2026-04-24 22:06 28.60652 -15.71059 45140 ft 473 kts 211°
2026-04-24 22:06 28.54657 -15.74355 45141 ft 473 kts 211°
2026-04-24 22:07 28.48765 -15.77595 45138 ft 473 kts 211°
2026-04-24 22:07 28.42797 -15.80869 45140 ft 473 kts 211°
2026-04-24 22:08 28.36891 -15.84108 45138 ft 473 kts 211°
2026-04-24 22:08 28.30926 -15.87373 45140 ft 473 kts 211°
2026-04-24 22:09 28.24966 -15.90632 45133 ft 472 kts 211°
2026-04-24 22:09 28.19039 -15.93869 45131 ft 472 kts 211°
2026-04-24 22:10 28.13080 -15.97120 45133 ft 472 kts 211°
2026-04-24 22:10 28.07119 -16.00367 45130 ft 472 kts 211°
2026-04-24 22:11 28.01203 -16.03586 45132 ft 472 kts 211°
2026-04-24 22:11 27.95291 -16.06799 45128 ft 471 kts 211°
2026-04-24 22:12 27.89368 -16.10014 45128 ft 471 kts 211°
2026-04-24 22:12 27.83451 -16.13221 45124 ft 471 kts 211°
2026-04-24 22:13 27.77533 -16.16426 45119 ft 471 kts 211°
2026-04-24 22:13 27.71592 -16.19638 45118 ft 471 kts 211°
2026-04-24 22:14 27.65663 -16.22841 45124 ft 471 kts 211°
2026-04-24 22:14 27.59755 -16.26027 45120 ft 470 kts 211°
2026-04-24 22:15 27.53802 -16.29234 45119 ft 470 kts 211°
2026-04-24 22:15 27.47902 -16.32409 45117 ft 470 kts 211°
2026-04-24 22:16 27.41997 -16.35583 45120 ft 470 kts 211°
2026-04-24 22:16 27.36165 -16.38713 45115 ft 470 kts 211°
2026-04-24 22:17 27.30271 -16.41874 45123 ft 469 kts 211°
2026-04-24 22:17 27.24371 -16.45033 45120 ft 469 kts 211°
2026-04-24 22:18 27.18481 -16.48184 45121 ft 469 kts 211°
2026-04-24 22:18 27.12539 -16.51359 45121 ft 469 kts 211°
2026-04-24 22:19 27.06651 -16.54501 45121 ft 469 kts 211°
2026-04-24 22:19 27.00718 -16.57663 45122 ft 468 kts 211°
2026-04-24 22:20 26.94869 -16.60778 45124 ft 468 kts 211°
2026-04-24 22:20 26.88977 -16.63910 45122 ft 467 kts 211°
2026-04-24 22:21 26.83027 -16.67072 45120 ft 467 kts 211°
2026-04-24 22:21 26.77151 -16.70188 45123 ft 467 kts 211°
2026-04-24 22:22 26.71274 -16.73303 45130 ft 467 kts 211°
2026-04-24 22:22 26.66349 -16.75910 45115 ft 467 kts 211°
2026-04-24 22:23 26.60484 -16.79012 45122 ft 467 kts 211°
2026-04-24 22:23 26.54615 -16.82112 45119 ft 466 kts 211°
2026-04-24 22:24 26.48741 -16.85212 45121 ft 466 kts 211°
2026-04-24 22:24 26.42875 -16.88302 45117 ft 466 kts 211°
2026-04-24 22:25 26.37000 -16.91396 45122 ft 466 kts 211°
2026-04-24 22:25 26.31135 -16.94480 45122 ft 465 kts 212°
2026-04-24 22:26 26.25276 -16.97558 45120 ft 465 kts 212°
2026-04-24 22:26 26.19425 -17.00627 45119 ft 465 kts 212°
2026-04-24 22:27 26.13573 -17.03694 45116 ft 465 kts 212°
2026-04-24 22:27 26.07728 -17.06753 45115 ft 464 kts 212°
2026-04-24 22:28 26.01900 -17.09801 45120 ft 465 kts 212°
2026-04-24 22:28 25.95977 -17.12895 45115 ft 464 kts 212°
2026-04-24 22:29 25.87220 -17.17463 45122 ft 464 kts 212°
2026-04-24 22:29 25.81385 -17.20502 45119 ft 464 kts 212°
2026-04-24 22:30 25.75531 -17.23548 45119 ft 463 kts 212°
2026-04-24 22:30 25.69670 -17.26595 45116 ft 463 kts 212°
2026-04-24 22:31 25.63777 -17.29654 45117 ft 463 kts 212°
2026-04-24 22:31 25.57896 -17.32704 45118 ft 463 kts 212°
2026-04-24 22:32 25.52078 -17.35718 45120 ft 463 kts 212°
2026-04-24 22:32 25.46235 -17.38742 45119 ft 462 kts 212°
2026-04-24 22:33 25.40412 -17.41752 45123 ft 462 kts 212°
2026-04-24 22:33 25.34602 -17.44752 45118 ft 462 kts 212°
2026-04-24 22:34 25.28671 -17.47812 45115 ft 462 kts 212°
2026-04-24 22:34 25.22827 -17.50823 45116 ft 462 kts 212°
2026-04-24 22:35 25.17006 -17.53819 45113 ft 462 kts 212°
2026-04-24 22:35 25.11177 -17.56816 45114 ft 462 kts 212°
2026-04-24 22:36 25.05403 -17.59783 45118 ft 462 kts 212°
2026-04-24 22:36 24.99552 -17.62876 45099 ft 458 kts 216°
2026-04-24 22:37 24.94156 -17.66614 45126 ft 456 kts 218°
2026-04-24 22:37 24.88777 -17.70293 45122 ft 455 kts 218°
2026-04-24 22:38 24.83413 -17.74013 45124 ft 455 kts 218°
2026-04-24 22:38 24.78042 -17.77701 45116 ft 455 kts 218°
2026-04-24 22:39 24.72681 -17.81397 45109 ft 455 kts 218°
2026-04-24 22:39 24.67277 -17.85109 45111 ft 455 kts 218°
2026-04-24 22:40 24.61916 -17.88793 45112 ft 455 kts 218°
2026-04-24 22:40 24.56555 -17.92469 45112 ft 455 kts 218°
2026-04-24 22:41 24.52054 -17.95555 45107 ft 454 kts 218°
2026-04-24 22:41 24.46680 -17.99236 45111 ft 455 kts 218°
2026-04-24 22:42 24.41308 -18.02909 45104 ft 454 kts 218°
2026-04-24 22:42 24.35972 -18.06556 45105 ft 454 kts 218°
2026-04-24 22:43 24.30584 -18.10234 45108 ft 454 kts 218°
2026-04-24 22:43 24.25229 -18.13887 45110 ft 454 kts 218°
2026-04-24 22:44 24.19812 -18.17577 45106 ft 454 kts 218°
2026-04-24 22:44 24.14447 -18.21228 45104 ft 453 kts 218°
2026-04-24 22:45 24.09085 -18.24875 45107 ft 453 kts 218°
2026-04-24 22:45 24.03718 -18.28520 45105 ft 454 kts 218°
2026-04-24 22:46 23.98315 -18.32186 45105 ft 453 kts 218°
2026-04-24 22:46 23.92967 -18.35812 45101 ft 453 kts 218°
2026-04-24 22:47 23.87616 -18.39436 45106 ft 453 kts 218°
2026-04-24 22:47 23.82200 -18.43101 45107 ft 453 kts 218°
2026-04-24 22:48 23.76844 -18.46720 45103 ft 452 kts 218°
2026-04-24 22:48 23.71439 -18.50370 45103 ft 452 kts 218°
2026-04-24 22:49 23.66111 -18.53964 45103 ft 452 kts 218°
2026-04-24 22:49 23.60726 -18.57593 45105 ft 452 kts 218°
2026-04-24 22:50 23.55395 -18.61181 45466 ft 447 kts 218°
2026-04-24 22:50 23.52753 -18.62957 45690 ft 446 kts 218°
2026-04-24 22:50 23.50110 -18.64738 45917 ft 446 kts 218°
2026-04-24 22:51 23.47467 -18.66516 46158 ft 446 kts 218°
2026-04-24 22:51 23.44836 -18.68281 46395 ft 446 kts 218°
2026-04-24 22:51 23.42221 -18.70036 46619 ft 446 kts 218°
2026-04-24 22:51 23.39583 -18.71808 46832 ft 446 kts 218°
2026-04-24 22:52 23.37888 -18.72946 46967 ft 446 kts 218°
2026-04-24 22:52 23.35249 -18.74715 47132 ft 446 kts 218°
2026-04-24 22:52 23.30157 -18.78130 47100 ft 452 kts 218°
2026-04-24 22:53 23.24719 -18.81767 47101 ft 452 kts 218°
2026-04-24 22:53 23.19398 -18.85328 47097 ft 450 kts 218°
2026-04-24 22:54 23.14028 -18.88917 47100 ft 451 kts 218°
2026-04-24 22:54 23.08689 -18.92480 47099 ft 450 kts 218°
2026-04-24 22:55 23.03342 -18.96049 47098 ft 451 kts 218°
2026-04-24 22:55 22.97999 -18.99608 47107 ft 450 kts 218°
2026-04-24 22:56 22.92663 -19.03162 47098 ft 450 kts 218°
2026-04-24 22:56 22.87316 -19.06717 47095 ft 450 kts 218°
2026-04-24 22:57 22.81970 -19.10270 47094 ft 451 kts 218°
2026-04-24 22:57 22.76619 -19.13822 47095 ft 451 kts 218°
2026-04-24 22:58 22.71273 -19.17369 47095 ft 451 kts 218°
2026-04-24 22:58 22.65917 -19.20918 47100 ft 451 kts 218°
2026-04-24 22:59 22.60569 -19.24458 47090 ft 451 kts 218°
2026-04-24 23:00 22.52544 -19.29766 47091 ft 451 kts 218°
2026-04-24 23:00 22.47177 -19.33310 47090 ft 451 kts 218°
2026-04-24 23:01 22.41825 -19.36843 47100 ft 451 kts 218°
2026-04-24 23:01 22.36442 -19.40392 47093 ft 452 kts 218°
2026-04-24 23:02 22.31112 -19.43902 47093 ft 451 kts 218°
2026-04-24 23:02 22.25712 -19.47456 47095 ft 452 kts 218°
2026-04-24 23:03 22.20384 -19.50959 47098 ft 451 kts 218°
2026-04-24 23:03 22.15021 -19.54483 47093 ft 452 kts 218°
2026-04-24 23:04 22.09642 -19.58013 47086 ft 452 kts 218°
2026-04-24 23:04 22.05185 -19.60936 47087 ft 452 kts 218°
2026-04-24 23:05 21.99811 -19.64457 47089 ft 452 kts 217°
2026-04-24 23:05 21.94441 -19.67972 47094 ft 452 kts 217°
2026-04-24 23:06 21.89065 -19.71487 47088 ft 451 kts 217°
2026-04-24 23:06 21.83700 -19.74993 47082 ft 451 kts 217°
2026-04-24 23:07 21.78327 -19.78500 47085 ft 451 kts 217°
2026-04-24 23:07 21.72959 -19.82001 47085 ft 451 kts 217°
2026-04-24 23:08 21.67588 -19.85502 47089 ft 451 kts 217°
2026-04-24 23:08 21.62238 -19.88986 47086 ft 451 kts 217°
2026-04-24 23:09 21.56874 -19.92475 47080 ft 451 kts 217°
2026-04-24 23:09 21.51497 -19.95970 47077 ft 451 kts 217°
2026-04-24 23:10 21.46131 -19.99454 47079 ft 451 kts 217°
2026-04-24 23:10 21.40750 -20.02945 47079 ft 451 kts 217°
2026-04-24 23:11 21.35381 -20.06426 47077 ft 451 kts 217°
2026-04-24 23:11 21.30004 -20.09909 47077 ft 451 kts 217°
2026-04-24 23:12 21.24635 -20.13383 47078 ft 451 kts 217°
2026-04-24 23:12 21.19262 -20.16857 47075 ft 450 kts 217°
2026-04-24 23:13 21.13923 -20.20306 47077 ft 450 kts 217°
2026-04-24 23:13 21.08524 -20.23791 47078 ft 450 kts 217°
2026-04-24 23:14 21.03157 -20.27253 47075 ft 450 kts 217°
2026-04-24 23:14 20.97828 -20.30686 47074 ft 449 kts 217°
2026-04-24 23:15 20.92434 -20.34159 47075 ft 449 kts 217°
2026-04-24 23:15 20.87080 -20.37603 47079 ft 449 kts 217°
2026-04-24 23:16 20.81754 -20.41026 47077 ft 448 kts 217°
2026-04-24 23:16 20.76408 -20.44460 47076 ft 448 kts 217°
2026-04-24 23:17 20.71067 -20.47887 47072 ft 447 kts 217°
2026-04-24 23:17 20.65729 -20.51309 47072 ft 447 kts 217°
2026-04-24 23:18 20.60390 -20.54729 47070 ft 447 kts 217°
2026-04-24 23:18 20.55066 -20.58137 47072 ft 446 kts 217°
2026-04-24 23:19 20.49738 -20.61544 47079 ft 446 kts 217°
2026-04-24 23:19 20.44423 -20.64941 47078 ft 446 kts 217°
2026-04-24 23:20 20.39099 -20.68341 47073 ft 445 kts 217°
2026-04-24 23:20 20.33773 -20.71737 47074 ft 445 kts 217°
2026-04-24 23:21 20.28488 -20.75094 47066 ft 445 kts 217°
2026-04-24 23:21 20.23162 -20.78481 47075 ft 445 kts 217°
2026-04-24 23:22 20.17841 -20.81859 47071 ft 445 kts 217°
2026-04-24 23:22 20.12525 -20.85233 47079 ft 445 kts 217°
2026-04-24 23:23 20.07163 -20.88632 47073 ft 445 kts 217°
2026-04-24 23:23 20.01841 -20.92004 47069 ft 445 kts 217°
2026-04-24 23:24 19.96522 -20.95370 47068 ft 445 kts 217°
2026-04-24 23:24 19.91199 -20.98736 47072 ft 445 kts 217°
2026-04-24 23:25 19.85880 -21.02098 47072 ft 445 kts 217°
2026-04-24 23:25 19.80553 -21.05461 47069 ft 445 kts 217°
2026-04-24 23:26 19.75244 -21.08811 47070 ft 444 kts 217°
2026-04-24 23:26 19.69909 -21.12175 47068 ft 445 kts 217°
2026-04-24 23:27 19.66151 -21.14542 47065 ft 445 kts 217°
2026-04-24 23:27 19.60796 -21.17914 47068 ft 445 kts 217°
2026-04-24 23:28 19.55476 -21.21261 47065 ft 445 kts 217°
2026-04-24 23:28 19.50181 -21.24590 47075 ft 445 kts 217°
2026-04-24 23:29 19.44854 -21.27936 47075 ft 445 kts 217°
2026-04-24 23:29 19.39536 -21.31274 47071 ft 445 kts 217°
2026-04-24 23:30 19.34229 -21.34603 47068 ft 445 kts 217°
2026-04-24 23:30 19.28897 -21.37944 47066 ft 445 kts 217°
2026-04-24 23:31 19.23518 -21.41313 47068 ft 445 kts 217°
2026-04-24 23:31 19.18180 -21.44654 47064 ft 446 kts 217°
2026-04-24 23:32 19.12906 -21.47951 47069 ft 446 kts 216°
2026-04-24 23:32 19.07530 -21.51310 47067 ft 446 kts 216°
2026-04-24 23:33 19.02174 -21.54654 47063 ft 446 kts 216°
2026-04-24 23:33 18.96833 -21.57986 47065 ft 447 kts 216°
2026-04-24 23:34 18.92342 -21.60786 47065 ft 447 kts 216°
2026-04-24 23:34 18.86978 -21.64128 47065 ft 447 kts 216°
2026-04-24 23:35 18.81620 -21.67463 47065 ft 447 kts 216°
2026-04-24 23:35 18.76250 -21.70804 47062 ft 447 kts 216°
2026-04-24 23:35 18.73583 -21.72460 46881 ft 442 kts 216°
2026-04-24 23:36 18.70936 -21.74104 46247 ft 437 kts 216°
2026-04-24 23:36 18.68346 -21.75712 45672 ft 430 kts 216°
2026-04-24 23:36 18.65785 -21.77304 45106 ft 424 kts 216°
2026-04-24 23:36 18.63267 -21.78867 44501 ft 417 kts 216°
2026-04-24 23:37 18.60837 -21.80374 43992 ft 409 kts 217°
2026-04-24 23:37 18.58376 -21.81900 43425 ft 403 kts 217°
2026-04-24 23:37 18.53563 -21.84894 42386 ft 411 kts 217°
2026-04-24 23:38 18.51056 -21.86452 41843 ft 424 kts 217°
2026-04-24 23:38 18.48479 -21.88046 41277 ft 434 kts 217°
2026-04-24 23:38 18.45861 -21.89661 40701 ft 438 kts 217°
2026-04-24 23:38 18.43225 -21.91291 40119 ft 440 kts 217°
2026-04-24 23:39 18.40609 -21.92913 39543 ft 441 kts 217°
2026-04-24 23:39 18.37956 -21.94555 38958 ft 444 kts 217°
2026-04-24 23:39 18.35292 -21.96202 38323 ft 446 kts 217°
2026-04-24 23:39 18.32607 -21.97861 37739 ft 447 kts 217°
2026-04-24 23:40 18.29919 -21.99523 37148 ft 449 kts 217°
2026-04-24 23:40 18.27176 -22.01219 36550 ft 451 kts 217°
2026-04-24 23:40 18.24464 -22.02893 35954 ft 453 kts 217°
2026-04-24 23:40 18.21737 -22.04576 35351 ft 455 kts 217°
2026-04-24 23:41 18.19028 -22.06248 34755 ft 457 kts 217°
2026-04-24 23:41 18.16249 -22.07963 34143 ft 459 kts 217°
2026-04-24 23:41 18.13483 -22.09668 33496 ft 461 kts 216°
2026-04-24 23:41 18.10711 -22.11376 32886 ft 464 kts 216°
2026-04-24 23:42 18.07910 -22.13104 32276 ft 467 kts 216°
2026-04-24 23:42 18.05091 -22.14840 31657 ft 471 kts 216°
2026-04-24 23:42 18.02251 -22.16587 31035 ft 474 kts 216°
2026-04-24 23:42 17.99392 -22.18347 30406 ft 477 kts 216°
2026-04-24 23:43 17.96536 -22.20103 29728 ft 474 kts 216°
2026-04-24 23:43 17.93703 -22.21840 29105 ft 468 kts 216°
2026-04-24 23:43 17.90902 -22.23564 28488 ft 464 kts 217°
2026-04-24 23:43 17.88130 -22.25271 27880 ft 460 kts 216°
2026-04-24 23:44 17.85404 -22.26945 27283 ft 457 kts 216°
2026-04-24 23:44 17.82664 -22.28627 26679 ft 453 kts 216°
2026-04-24 23:44 17.79946 -22.30296 26077 ft 450 kts 216°
2026-04-24 23:44 17.77255 -22.31949 25491 ft 447 kts 216°
2026-04-24 23:45 17.74582 -22.33589 24912 ft 444 kts 216°
2026-04-24 23:45 17.71924 -22.35219 24324 ft 441 kts 216°
2026-04-24 23:45 17.69308 -22.36823 23751 ft 438 kts 216°
2026-04-24 23:45 17.66672 -22.38439 23114 ft 433 kts 216°
2026-04-24 23:46 17.64083 -22.40024 22548 ft 429 kts 215°
2026-04-24 23:46 17.61520 -22.41595 21975 ft 424 kts 215°
2026-04-24 23:46 17.58986 -22.43147 21423 ft 420 kts 214°
2026-04-24 23:46 17.56475 -22.44685 20874 ft 416 kts 214°
2026-04-24 23:47 17.53987 -22.46207 20326 ft 411 kts 214°
2026-04-24 23:47 17.51534 -22.47707 19788 ft 407 kts 213°
2026-04-24 23:47 17.49097 -22.49198 19256 ft 403 kts 213°
2026-04-24 23:47 17.46688 -22.50671 18721 ft 398 kts 213°
2026-04-24 23:48 17.44307 -22.52125 18173 ft 393 kts 213°
2026-04-24 23:48 17.41956 -22.53562 17647 ft 388 kts 213°
2026-04-24 23:48 17.39605 -22.54998 17125 ft 384 kts 213°
2026-04-24 23:48 17.37302 -22.56405 16617 ft 380 kts 213°
2026-04-24 23:49 17.35055 -22.57776 16121 ft 376 kts 213°
2026-04-24 23:49 17.32805 -22.59149 15627 ft 372 kts 213°
2026-04-24 23:49 17.30560 -22.60519 15135 ft 368 kts 213°
2026-04-24 23:49 17.28357 -22.61863 14645 ft 364 kts 213°
2026-04-24 23:50 17.26208 -22.63173 14176 ft 360 kts 213°
2026-04-24 23:50 17.24054 -22.64486 13681 ft 357 kts 213°
2026-04-24 23:50 17.21916 -22.65789 13202 ft 354 kts 213°
2026-04-24 23:50 17.19769 -22.67098 12728 ft 352 kts 213°
2026-04-24 23:51 17.17680 -22.68370 12271 ft 350 kts 213°
2026-04-24 23:51 17.15584 -22.69646 11812 ft 349 kts 213°
2026-04-24 23:51 17.13485 -22.70924 11346 ft 344 kts 213°
2026-04-24 23:51 17.11473 -22.72144 10901 ft 323 kts 213°
2026-04-24 23:52 17.09585 -22.73291 10482 ft 305 kts 213°
2026-04-24 23:52 17.07795 -22.74382 10083 ft 290 kts 214°
2026-04-24 23:52 17.06079 -22.75428 9680 ft 281 kts 214°
2026-04-24 23:52 17.04406 -22.76454 9318 ft 278 kts 214°
2026-04-24 23:53 17.02717 -22.77490 8953 ft 278 kts 214°
2026-04-24 23:53 17.01067 -22.78500 8586 ft 279 kts 214°
2026-04-24 23:53 16.99386 -22.79530 8223 ft 279 kts 214°
2026-04-24 23:53 16.97699 -22.80559 7851 ft 279 kts 214°
2026-04-24 23:54 16.96049 -22.81567 7486 ft 278 kts 214°
2026-04-24 23:54 16.94397 -22.82603 7118 ft 277 kts 215°
2026-04-24 23:54 16.92749 -22.83618 6751 ft 271 kts 214°
2026-04-24 23:54 16.91468 -22.84383 6482 ft 273 kts 214°
2026-04-24 23:55 16.89736 -22.85420 6085 ft 275 kts 213°
2026-04-24 23:55 16.88072 -22.86424 5717 ft 275 kts 214°
2026-04-24 23:55 16.86413 -22.87426 5350 ft 276 kts 214°
2026-04-24 23:55 16.84751 -22.88428 4982 ft 276 kts 213°
2026-04-24 23:56 16.83092 -22.89427 4612 ft 275 kts 213°
2026-04-24 23:56 16.81434 -22.90424 4251 ft 275 kts 213°
2026-04-24 23:56 16.79759 -22.91435 3890 ft 279 kts 212°
2026-04-24 23:56 16.78119 -22.92421 3513 ft 257 kts 212°
2026-04-24 23:57 16.76612 -22.93328 3189 ft 259 kts 212°
2026-04-24 23:57 16.75034 -22.94283 2839 ft 258 kts 212°
2026-04-24 23:57 16.73530 -22.95209 2533 ft 250 kts 212°
2026-04-24 23:57 16.71945 -22.95899 2499 ft 247 kts 192°
2026-04-24 23:58 16.70277 -22.96099 2552 ft 245 kts 187°
2026-04-24 23:58 16.68626 -22.96488 2553 ft 240 kts 195°
2026-04-24 23:58 16.67060 -22.96952 2546 ft 230 kts 195°
2026-04-24 23:58 16.65526 -22.97380 2547 ft 228 kts 194°
2026-04-24 23:59 16.63998 -22.97801 2545 ft 227 kts 194°
2026-04-24 23:59 16.62445 -22.98234 2337 ft 233 kts 194°
2026-04-24 23:59 16.60883 -22.98671 2216 ft 230 kts 194°
2026-04-24 23:59 16.59333 -22.99103 2078 ft 229 kts 195°
2026-04-25 00:00 16.57811 -22.99528 2040 ft 225 kts 194°
2026-04-25 00:00 16.56296 -22.99950 2038 ft 225 kts 194°
2026-04-25 00:00 16.54788 -23.00371 2046 ft 220 kts 194°
2026-04-25 00:00 16.53367 -23.00691 1979 ft 202 kts 180°
2026-04-25 00:01 16.52131 -23.00157 1780 ft 191 kts 128°
2026-04-25 00:01 16.51770 -22.98958 1746 ft 169 kts 79°
2026-04-25 00:01 16.51975 -22.97777 1911 ft 161 kts 74°
2026-04-25 00:01 16.52154 -22.97093 1961 ft 156 kts 58°
2026-04-25 00:02 16.52990 -22.96412 2052 ft 152 kts 26°
2026-04-25 00:02 16.53978 -22.95884 2064 ft 160 kts 27°
2026-04-25 00:02 16.54951 -22.95355 1997 ft 160 kts 26°
2026-04-25 00:02 16.55991 -22.94964 1877 ft 159 kts 15°
2026-04-25 00:03 16.57087 -22.94824 1740 ft 159 kts
2026-04-25 00:03 16.58195 -22.94801 1602 ft 158 kts
2026-04-25 00:03 16.59262 -22.94800 1537 ft 145 kts
2026-04-25 00:03 16.60248 -22.94808 1539 ft 140 kts
2026-04-25 00:04 16.61245 -22.94814 1548 ft 147 kts
2026-04-25 00:04 16.62277 -22.94821 1546 ft 149 kts
2026-04-25 00:04 16.63274 -22.94828 1547 ft 148 kts
2026-04-25 00:04 16.64296 -22.94836 1539 ft 144 kts
2026-04-25 00:05 16.65267 -22.94844 1539 ft 133 kts
2026-04-25 00:05 16.66146 -22.94846 1392 ft 121 kts
2026-04-25 00:05 16.66943 -22.94853 1244 ft 108 kts
2026-04-25 00:05 16.67633 -22.94858 1108 ft 105 kts
2026-04-25 00:06 16.68380 -22.94863 979 ft 105 kts
2026-04-25 00:06 16.69134 -22.94867 837 ft 110 kts
2026-04-25 00:06 16.69908 -22.94872 701 ft 112 kts
2026-04-25 00:06 16.70684 -22.94877 563 ft 109 kts
2026-04-25 00:07 16.71450 -22.94877 407 ft 113 kts
2026-04-25 00:07 16.72236 -22.94889 273 ft 112 kts
2026-04-25 00:07 16.73012 -22.94890 191 ft 104 kts
2026-04-25 00:07 16.73644 -22.94899 185 ft 75 kts 355°
2026-04-25 00:08 16.73972 -22.94907 185 ft 30 kts
2026-04-25 00:08 16.74165 -22.94895 182 ft 21 kts 360°
2026-04-25 00:08 16.74243 -22.94837 182 ft 13 kts 57°
2026-04-25 00:08 16.74278 -22.94777 182 ft 0 kts 58°
2026-04-25 00:09 16.74287 -22.94762 182 ft 6 kts 58°
2026-04-25 00:09 16.74294 -22.94705 181 ft 9 kts 121°
2026-04-25 00:10 16.74243 -22.94699 181 ft 10 kts 180°
2026-04-25 00:10 16.74143 -22.94698 182 ft 21 kts 179°
2026-04-25 00:10 16.73967 -22.94697 187 ft 25 kts 180°
2026-04-25 00:10 16.73822 -22.94696 196 ft 20 kts 179°
2026-04-25 00:11 16.73696 -22.94696 196 ft 14 kts 180°
2026-04-25 00:11 16.73630 -22.94683 201 ft 9 kts 143°
2026-04-25 00:11 16.73609 -22.94626 203 ft 11 kts 107°
2026-04-25 00:11 16.73559 -22.94594 197 ft 10 kts 171°
2026-04-25 00:12 16.73493 -22.94597 197 ft 9 kts 183°
2026-04-25 00:12 16.73435 -22.94596 197 ft 2 kts 181°
2026-04-25 00:12 16.73430 -22.94596 197 ft 3 kts 182°
2026-04-25 00:12 16.73401 -22.94597 197 ft 7 kts 178°
2026-04-25 00:13 16.73355 -22.94588 197 ft 4 kts 132°
2026-04-25 00:13 16.73357 -22.94565 197 ft 4 kts 64°
2026-04-25 00:13 16.73365 -22.94537 197 ft 4 kts 81°
2026-04-25 00:13 16.73365 -22.94508 197 ft 4 kts 90°
2026-04-25 00:14 16.73365 -22.94497 197 ft 1 kts 89°